Regional Weather Roundup
Issued by NWS

Home | Current Version | Previous Version | Text Only | Print | Product List | Glossary On
Versions: 1 2 3 4 5 6 7 8 9 10 11 12 13 14 15 16 17 18 19 20 21 22 23 24 25 26 27 28 29 30 31 32 33 34 35 36 37 38 39 40 41 42 43 44 45 46 47 48 49 50
000
ASUS42 KKEY 040310
RWRKEY

FLORIDA REGIONAL WEATHER ROUNDUP FOR THE FLORIDA KEYS
NATIONAL WEATHER SERVICE KEY WEST FLORIDA
1100 PM EDT SUN MAY 03 2015

...SOUTH FLORIDA AND THE KEYS...

CITY           SKY/WX    TMP DP  RH WIND       PRES   REMARKS
FORT MYERS     PTCLDY    72  60  66 E12       30.13R
SW REGIONAL AP MOCLDY    71  58  63 E12       30.14R
NAPLES         MOCLDY    73  59  61 E12       30.12R
MIAMI          PTCLDY    75  54  47 E16G23    30.12R
WEST KENDALL   PTCLDY    74  59  59 E10       30.12R
HOMESTEAD      PTCLDY    75  59  57 E13       30.11R
MARATHON       PTCLDY    77  61  57 E15G24    30.09R
BOCA CHICA NAS CLEAR     76  61  59 E14       30.08R
KEY WEST INTL  MOCLDY    76  62  62 E14G22    30.08R

...INTERNATIONAL WEATHER...

CITY           SKY/WX    TMP DP  RH WIND       PRES   REMARKS
NASSAU BAHAMAS MOCLDY    73  63  68 E9        30.13R
CANCUN MEXICO  PTCLDY    79  68  69 E7        29.98R
COZUMEL MEXICO PTCLDY    75  72  88 E7        29.98R

ADJACENT COASTAL WATERS...

STATION/POSITION TIME  SKY/WX   TEMP    WIND        PRES    WAVE
                                AIR SEA DIR/SP/G            HT/PER
                 (UTC)          (F)     (DEG/KT/KT) (MB)    (FT/S)
PULASKI SHOAL LI 0200            78     100/ 23/ 25 1017.5R
SAND KEY         0250            77      90/ 25/ 29 1018.0R
SOMBRERO KEY     0300            77      90/ 25/ 27 1018.3F
LONG KEY         0200            76 77  100/ 19/ 20 1019.6R
MOLASSES REEF    0300            76 79   90/ 22/ 25 1018.9R
FOWEY ROCKS      NOT AVBL

$$


USA.gov is the U.S. government's official web portal to all federal, state and local government web resources and services.